CAPE
3 4 2 4 1 2 4 4 2 1 1 2 1 0 0 0 0 0 0 0 0 0 0 0 0 0 0 0 0 0 0 0 0 0 0 0 3 0 0 7 0 46 81 161 95
3 4 3 2 0 0 2 4 2 2 1 0 0 0 0 0 0 0 0 0 0 0 0 0 0 0 0 0 0 0 0 0 0 0 0 0 0 6 3 13 60 0 415 292 156
1 3 4 2 0 0 0 4 3 2 2 1 0 0 0 0 0 0 0 0 0 0 0 0 0 0 0 0 0 0 0 0 0 0 0 0 6 5 8 8 43 7 572 360 262
0 0 0 1 0 0 1 4 3 1 1 0 0 0 0 0 0 0 0 0 0 0 0 0 0 0 0 0 0 0 0 0 0 0 0 0 4 38 35 19 54 6 527 472 400
0 0 0 0 0 0 1 3 2 0 0 0 0 0 0 0 0 0 0 0 0 0 0 0 0 0 0 0 0 0 0 0 0 0 0 0 0 12 76 42 48 193 496 395 229
0 0 0 0 0 0 3 1 0 0 0 0 0 0 0 0 0 0 0 0 0 0 0 0 0 0 0 0 0 0 0 0 0 0 0 0 0 0 0 0 11 0 0 0 0
0 0 0 0 0 1 2 0 0 0 0 0 0 0 0 0 0 0 0 0 0 0 0 0 0 0 0 0 0 0 0 0 0 0 0 0 0 0 0 0 0 0 0 0 0
1 0 0 0 0 2 1 0 0 0 0 0 0 0 0 0 0 0 0 0 0 0 0 0 0 0 0 0 0 0 0 0 0 0 0 0 0 0 0 0 0 0 0 0 0
2 0 0 0 0 0 0 0 0 0 0 0 0 0 0 0 0 0 0 0 0 0 0 0 0 0 0 0 0 0 0 0 0 0 0 0 0 0 0 0 0 0 0 0 0
0 1 1 0 2 0 0 0 0 0 0 0 0 0 0 0 0 0 0 0 0 0 0 0 0 0 0 0 0 0 0 0 0 0 0 0 0 0 0 0 0 0 0 0 0
0 0 2 1 1 0 0 0 0 0 0 0 0 0 0 0 0 0 0 0 0 0 0 0 0 0 0 0 0 0 0 0 0 0 0 0 0 0 0 0 0 0 0 0 0
0 0 0 0 0 0 0 0 0 0 0 0 0 0 0 0 0 0 0 0 0 0 0 0 0 0 0 0 0 0 0 0 0 0 0 0 0 0 0 0 0 0 0 0 0
2 2 1 0 0 0 0 0 0 0 0 0 0 0 0 0 0 0 0 0 0 0 0 0 0 0 0 0 0 0 0 0 0 0 0 0 0 0 0 0 0 0 0 0 0
2 0 0 0 0 0 0 0 0 0 0 0 0 0 0 0 0 0 0 0 0 0 0 0 0 0 0 0 0 0 0 0 0 0 0 0 0 0 0 0 0 0 0 0 0
1 0 0 0 0 0 0 0 0 0 0 0 0 0 0 0 0 0 0 0 0 0 0 0 0 0 0 0 0 0 0 0 0 0 0 0 0 0 0 0 0 0 0 0 0
0 0 0 0 0 0 0 0 0 0 0 0 0 0 0 0 0 0 0 0 0 0 0 0 0 0 0 0 0 0 0 0 0 0 0 0 0 0 0 0 0 0 0 0 0
0 0 0 0 0 0 0 0 0 0 0 0 0 0 0 0 0 0 0 0 0 0 0 0 0 0 0 0 0 0 0 0 0 0 0 0 0 0 0 0 0 0 0 0 0
0 0 0 0 0 0 0 0 0 0 0 0 0 0 0 0 0 0 0 0 0 0 0 0 0 0 0 0 0 0 0 0 0 0 0 0 0 0 0 0 0 0 0 0 0
0 0 0 0 0 0 0 0 0 0 0 0 0 0 0 0 0 0 0 0 0 0 0 0 0 0 0 0 0 0 0 0 0 0 0 0 0 0 0 0 0 0 0 0 0
0 0 0 0 0 0 0 0 0 0 0 0 0 0 0 0 0 0 0 0 0 0 0 0 0 0 0 0 0 0 0 0 0 0 0 0 0 0 0 0 0 0 0 0 0
0 0 0 0 0 0 0 0 0 0 0 0 0 0 0 0 0 0 0 0 0 0 0 0 0 0 0 0 0 0 0 0 0 0 0 0 0 0 0 0 0 0 0 0 0
0 0 0 0 0 0 0 0 0 0 0 0 0 0 0 0 0 0 0 0 0 0 0 0 0 0 0 0 0 0 0 0 0 0 0 0 1 0 0 0 0 0 0 0 0
0 0 0 0 0 0 0 0 0 0 0 0 0 0 0 0 0 0 0 0 0 0 0 0 0 0 0 0 0 0 0 0 0 0 0 0 0 0 0 0 0 0 0 0 0
0 0 0 0 0 0 0 0 0 0 0 0 0 0 0 0 0 0 0 0 0 0 0 0 0 0 0 0 0 0 0 0 0 0 0 0 0 0 0 0 0 0 0 0 0
0 0 0 0 0 0 0 0 0 0 0 0 0 0 0 0 0 0 0 0 0 0 0 0 0 0 0 0 0 0 0 0 0 0 0 0 0 0 0 0 0 0 0 0 0
0 0 0 0 0 0 0 0 0 0 0 0 0 0 0 0 0 0 0 0 0 0 0 0 0 0 0 0 0 0 0 0 0 0 0 0 0 0 0 0 0 0 0 0 0
0 0 0 0 0 0 0 0 0 0 0 0 0 0 0 0 0 0 0 0 0 0 0 0 0 0 0 0 0 0 0 0 0 0 0 0 0 0 0 0 0 0 0 0 0
CIN
0 0 0 0 0 0 0 0 0 0 0 0 0 0 0 0 0 0 0 0 0 0 0 0 0 0 0 0 0 0 0 0 0 0 0 0 -294 -1 0 -189 0 -276 -383 -453 -737
0 0 0 0 0 0 0 0 0 0 0 0 0 0 0 0 0 0 0 0 0 0 0 0 0 0 0 0 0 0 0 0 0 0 0 0 0 -281 -244 -252 -224 0 -451 -635 -764
0 0 0 0 0 0 0 0 0 0 0 0 0 0 0 0 0 0 0 0 0 0 0 0 0 0 0 0 0 0 0 0 0 0 0 0 -295 -297 -168 -75 -220 -199 -427 -596 -680
0 0 0 0 0 0 0 0 0 0 0 0 0 0 0 0 0 0 0 0 0 0 0 0 0 0 0 0 0 0 0 0 0 0 0 0 -217 -207 -275 -107 -334 -459 -516 -553 -604
0 0 0 0 0 0 0 0 0 0 0 0 0 0 0 0 0 0 0 0 0 0 0 0 0 0 0 0 0 0 0 0 0 0 0 0 0 -258 -215 -305 -349 -540 -458 -324 -311
0 0 0 0 0 0 0 0 0 0 0 0 0 0 0 0 0 0 0 0 0 0 0 0 0 0 0 0 0 0 0 0 0 0 0 0 0 0 0 0 -134 -183 0 0 0
0 0 0 0 0 0 0 0 0 0 0 0 0 0 0 0 0 0 0 0 0 0 0 0 0 0 0 0 0 0 0 0 0 0 0 0 0 0 0 0 0 0 0 0 0
-1 0 0 0 0 0 0 0 0 0 0 0 0 0 0 0 0 0 0 0 0 0 0 0 0 0 0 0 0 0 0 0 0 0 0 0 0 0 0 0 0 0 0 0 0
0 0 0 0 0 0 0 0 0 0 0 0 0 0 0 0 0 0 0 0 0 0 0 0 0 0 0 0 0 0 0 0 0 0 0 0 0 0 0 0 0 0 0 0 0
0 0 0 0 0 0 0 0 0 0 0 0 0 0 0 0 0 0 0 0 0 0 0 0 0 0 0 0 0 0 0 0 0 0 0 0 0 0 0 0 0 0 0 0 0
0 0 0 0 0 0 0 0 0 0 0 0 0 0 0 0 0 0 0 0 0 0 0 0 0 0 0 0 0 0 0 0 0 0 0 0 0 0 0 0 0 0 0 0 0
0 0 0 0 0 0 0 0 0 0 0 0 0 0 0 0 0 0 0 0 0 0 0 0 0 0 0 0 0 0 0 0 0 0 0 0 0 0 0 0 0 0 0 0 0
0 0 0 0 0 0 0 0 0 0 0 0 0 0 0 0 0 0 0 0 0 0 0 0 0 0 0 0 0 0 0 0 0 0 0 0 0 0 0 0 0 0 0 0 0
0 0 0 0 0 0 0 0 0 0 0 0 0 0 0 0 0 0 0 0 0 0 0 0 0 0 0 0 0 0 0 0 0 0 0 0 0 0 0 0 0 0 0 0 0
0 0 0 0 0 0 0 0 0 0 0 0 0 0 0 0 0 0 0 0 0 0 0 0 0 0 0 0 0 0 0 0 0 0 0 0 0 0 0 0 0 0 0 0 0
0 0 0 0 0 0 0 0 0 0 0 0 0 0 0 0 0 0 0 0 0 0 0 0 0 0 0 0 0 0 0 0 0 0 0 0 0 0 0 0 0 0 0 0 0
0 0 0 0 0 0 0 0 0 0 0 0 0 0 0 0 0 0 0 0 0 0 0 0 0 0 0 0 0 0 0 0 0 0 0 0 0 0 0 0 0 0 0 0 0
0 0 0 0 0 0 0 0 0 0 0 0 0 0 0 0 0 0 0 0 0 0 0 0 0 0 0 0 0 0 0 0 0 0 0 0 0 0 0 0 0 0 0 0 0
0 0 0 0 0 0 0 0 0 0 0 0 0 0 0 0 0 0 0 0 0 0 0 0 0 0 0 0 0 0 0 0 0 0 0 0 0 0 0 0 0 0 0 0 0
0 0 0 0 0 0 0 0 0 0 0 0 0 0 0 0 0 0 0 0 0 0 0 0 0 0 0 0 0 0 0 0 0 0 0 0 0 0 0 0 0 0 0 0 0
0 0 0 0 0 0 0 0 0 0 0 0 0 0 0 0 0 0 0 0 0 0 0 0 0 0 0 0 0 0 0 0 0 0 0 0 0 0 0 0 0 0 0 0 0
0 0 0 0 0 0 0 0 0 0 0 0 0 0 0 0 0 0 0 0 0 0 0 0 0 0 0 0 0 0 0 0 0 0 0 0 0 0 0 0 0 0 0 0 0
0 0 0 0 0 0 0 0 0 0 0 0 0 0 0 0 0 0 0 0 0 0 0 0 0 0 0 0 0 0 0 0 0 0 0 0 0 0 0 0 0 0 0 0 0
0 0 0 0 0 0 0 0 0 0 0 0 0 0 0 0 0 0 0 0 0 0 0 0 0 0 0 0 0 0 0 0 0 0 0 0 0 0 0 0 0 0 0 0 0
0 0 0 0 0 0 0 0 0 0 0 0 0 0 0 0 0 0 0 0 0 0 0 0 0 0 0 0 0 0 0 0 0 0 0 0 0 0 0 0 0 0 0 0 0
0 0 0 0 0 0 0 0 0 0 0 0 0 0 0 0 0 0 0 0 0 0 0 0 0 0 0 0 0 0 0 0 0 0 0 0 0 0 0 0 0 0 0 0 0
0 0 0 0 0 0 0 0 0 0 0 0 0 0 0 0 0 0 0 0 0 0 0 0 0 0 0 0 0 0 0 0 0 0 0 0 0 0 0 0 0 0 0 0 0
Wind_Speed
11 10 10 9 9 9 8 8 8 8 8 7 7 7 7 9 9 3 7 11 6 7 4 2 3 4 4 3 3 4 6 2 4 4 4 7 5 3 4 3 2 1 5 4 17
11 11 10 10 9 9 9 8 8 8 7 7 7 7 7 8 2 7 11 8 5 9 5 5 2 2 3 3 2 6 5 9 6 2 3 3 1 2 3 3 1 3 6 15 14
11 11 12 10 10 9 10 9 7 6 6 6 6 7 7 5 3 8 0 13 14 4 3 3 4 3 3 2 3 2 7 5 5 5 2 2 2 4 4 5 8 6 11 12 12
13 12 11 11 11 10 9 9 7 6 5 5 5 6 6 1 2 3 8 9 12 7 3 5 4 4 4 4 4 5 5 6 4 5 2 4 2 4 6 2 5 7 15 13 12
13 12 12 11 11 10 10 8 7 6 5 5 5 5 2 1 9 2 8 11 7 6 6 5 4 5 4 3 3 4 4 7 7 7 8 2 14 6 5 9 5 10 9 15 17
12 11 11 10 10 10 9 8 6 4 4 4 4 3 1 3 2 4 8 6 5 5 4 6 7 6 4 3 4 6 3 3 4 6 1 21 25 14 35 17 26 26 25 24 24
13 12 11 10 10 9 9 7 5 4 3 4 3 2 0 13 6 5 7 4 6 4 5 4 5 3 4 1 1 1 1 3 16 8 8 4 35 22 20 30 30 27 24 25 24
12 11 10 9 9 9 8 5 4 4 3 3 2 1 8 4 2 3 4 2 3 5 3 3 6 2 3 3 6 3 4 4 8 18 10 18 14 21 22 27 28 26 23 23 26
12 11 10 9 9 8 4 2 3 3 2 3 0 1 10 6 2 4 8 5 5 3 2 4 5 2 4 5 5 6 3 3 9 22 7 13 7 19 20 22 27 24 23 21 23
12 10 8 8 9 7 2 1 3 2 2 3 3 3 5 1 3 4 3 5 3 3 3 4 5 4 4 5 3 5 6 6 9 12 30 26 20 17 20 24 24 22 21 22 23
13 11 8 8 7 5 1 2 2 0 2 9 5 4 5 8 3 4 4 6 3 7 3 3 5 4 8 6 5 3 8 15 18 11 20 20 20 17 17 23 23 21 21 21 21
13 10 7 6 5 2 0 2 3 1 7 9 3 7 5 2 3 1 6 5 3 3 3 6 3 7 4 8 6 8 21 12 11 21 19 15 18 15 18 20 19 19 20 20 21
11 8 6 4 2 1 3 6 2 3 0 6 6 5 5 7 5 5 7 4 4 4 4 6 5 2 5 6 8 6 11 15 10 10 20 12 9 9 10 17 17 18 15 17 19
10 6 3 2 1 2 4 1 5 5 5 6 4 7 5 3 1 2 4 6 2 7 6 5 4 4 3 6 8 6 13 21 26 10 6 2 4 2 6 12 16 16 17 17 19
10 5 2 3 1 3 1 6 2 4 3 1 3 1 2 8 4 4 5 4 6 3 5 6 3 4 4 2 7 7 21 27 23 6 7 3 8 3 5 10 16 15 16 15 15
8 3 6 2 1 6 6 4 3 7 4 3 5 4 4 1 2 1 5 9 2 2 3 5 3 1 2 2 0 3 10 7 4 3 2 4 5 5 4 4 9 13 16 17 17
7 5 6 1 3 5 4 4 7 3 5 5 2 3 3 3 4 5 6 7 3 2 6 6 2 5 3 1 4 7 7 1 1 1 1 2 8 2 6 7 9 11 14 14 15
4 8 5 5 3 7 4 7 1 4 3 3 4 3 6 4 4 3 3 3 6 4 3 2 4 8 9 3 1 2 6 7 8 6 4 7 5 2 7 5 5 8 9 11 13
7 0 3 5 7 2 7 4 7 3 3 6 6 2 2 2 7 5 3 2 1 2 5 4 2 4 5 5 1 2 2 2 8 4 7 3 4 4 4 6 9 10 11 12 12
1 1 3 2 6 5 6 5 4 2 3 3 2 3 2 3 4 3 3 1 1 2 2 4 2 2 5 3 5 4 2 2 3 6 4 3 5 3 2 6 8 9 9 10 11
2 4 3 1 2 7 4 6 4 2 3 4 1 3 3 2 4 1 4 2 2 3 2 3 3 3 4 7 2 7 4 6 5 3 6 7 2 4 0 1 6 10 10 9 10
2 3 3 3 5 1 2 3 5 4 7 4 3 4 3 3 3 2 4 1 4 2 2 1 5 3 2 3 5 5 3 3 4 2 3 2 4 3 1 1 4 8 10 10 9
2 1 3 4 2 2 3 1 4 6 6 6 4 4 4 3 1 2 2 1 3 2 4 3 4 4 6 4 3 7 5 2 4 4 3 3 3 3 2 1 5 6 9 9 10
3 3 5 6 2 2 1 2 2 5 4 4 4 4 4 3 5 3 1 2 2 2 8 7 6 3 5 2 3 6 6 3 3 5 5 3 7 3 2 3 5 6 7 8 7
4 1 1 3 6 5 3 4 3 6 5 8 4 5 0 2 2 2 1 0 3 4 5 7 7 5 10 12 14 11 11 11 8 3 3 8 6 4 3 3 5 6 7 7 9
4 3 5 3 3 5 7 7 4 2 6 5 5 5 0 4 5 9 4 1 1 5 4 4 7 2 9 9 11 16 9 10 11 8 8 11 5 4 3 2 3 5 6 7 9
2 2 6 5 5 4 5 5 6 3 3 5 3 3 7 6 1 5 6 7 5 3 3 5 8 4 4 2 4 8 7 5 4 4 5 4 4 3 2 3 4 5 5 7 9
Wind_Direction
335 332 327 324 319 314 307 298 295 290 291 303 307 315 314 313 312 121 245 218 194 152 143 93 61 4 49 87 96 124 70 230 259 190 287 321 8 353 287 300 22 117 127 140 132
335 333 328 325 320 315 306 298 292 290 296 296 304 311 318 333 311 248 245 195 179 160 116 121 124 66 54 112 51 98 120 217 226 258 65 280 291 239 307 315 269 61 51 124 134
335 331 326 326 323 317 310 304 293 288 287 295 306 314 317 317 308 247 3 204 188 165 104 96 102 86 90 74 157 146 162 221 268 265 304 261 260 207 195 253 227 176 155 150 153
333 329 324 321 319 315 308 302 296 291 292 295 301 313 319 302 199 7 338 169 158 154 109 97 70 90 119 180 171 125 218 169 265 239 254 220 188 252 185 192 351 148 161 158 163
330 325 323 321 317 313 306 301 293 286 284 289 298 318 308 11 253 22 77 118 113 128 138 131 125 133 166 190 123 153 217 165 230 221 245 356 356 268 305 334 54 107 87 35 20
326 321 320 318 315 309 303 295 281 271 274 285 298 320 63 259 235 132 124 125 125 118 138 130 177 198 150 189 159 189 229 244 234 238 172 80 22 44 332 319 45 55 60 57 47
326 322 321 317 316 307 299 289 277 269 269 276 285 287 197 237 106 130 150 170 169 164 150 212 170 123 138 149 248 144 288 297 16 320 59 131 29 16 6 54 56 55 54 57 50
325 322 320 314 315 309 297 265 237 225 233 252 270 284 248 246 140 161 179 231 211 217 195 159 138 122 155 148 27 76 38 100 356 348 360 85 50 23 18 57 55 50 52 50 49
323 320 317 312 315 314 304 223 211 211 229 190 141 126 270 322 277 224 161 177 164 204 210 126 119 121 44 85 26 0 190 47 20 7 87 70 79 27 30 46 58 46 42 40 42
321 315 312 308 314 315 281 165 194 133 248 210 263 329 270 253 241 180 203 145 202 126 98 83 53 77 48 75 208 214 122 36 95 32 80 79 73 45 35 45 47 43 36 35 31
322 317 305 300 309 308 155 107 29 258 226 195 194 239 278 300 234 202 162 123 112 57 144 13 75 202 222 177 175 126 76 107 134 152 65 79 74 52 42 44 38 34 31 25 21
321 313 303 294 304 309 292 189 231 188 310 226 227 277 267 263 294 160 122 124 132 174 106 22 251 227 185 160 167 100 109 116 64 95 98 98 77 65 48 51 41 31 30 22 12
321 312 295 291 308 104 196 235 340 25 224 290 189 201 219 147 206 249 130 140 135 131 171 157 235 98 178 169 160 158 149 178 148 104 135 109 69 34 50 50 39 32 27 25 15
327 320 289 224 70 182 241 266 308 161 56 279 258 265 141 185 279 221 180 139 75 195 165 216 268 244 230 231 156 169 179 146 147 138 171 136 173 35 17 36 32 21 17 12 7
330 324 218 209 240 196 171 322 118 72 4 195 199 116 122 147 167 14 347 58 164 208 104 256 285 317 307 282 179 212 145 162 172 127 111 66 81 334 23 2 10 8 7 6 2
329 287 160 195 254 248 316 310 68 42 264 332 156 152 121 73 62 66 49 39 81 103 18 225 282 339 264 50 141 131 87 87 64 54 66 335 107 327 35 358 351 355 357 356 354
327 198 177 296 222 327 317 58 37 138 317 321 303 147 139 139 50 47 31 27 87 52 2 336 23 327 30 351 33 68 75 18 315 138 221 127 58 144 82 45 15 353 350 353 350
312 150 248 242 300 2 38 50 200 266 296 335 348 95 157 134 28 57 78 90 31 75 97 103 329 0 337 53 199 67 151 158 193 182 201 24 108 160 111 74 21 353 348 349 350
148 230 282 265 202 115 69 80 217 222 312 335 323 137 142 77 117 83 59 119 129 34 146 147 207 316 62 24 56 165 104 156 106 62 87 116 50 351 83 23 357 353 352 352 348
87 46 272 354 156 72 77 225 232 241 332 345 350 19 138 24 94 87 178 302 165 22 197 193 140 3 318 7 36 79 108 78 16 141 148 176 186 175 349 347 342 343 340 339 336
36 58 291 75 51 51 157 231 261 55 19 39 6 352 36 74 81 84 174 5 5 331 59 135 111 273 37 20 309 349 29 47 109 87 155 150 206 142 102 306 330 333 335 331 326
94 60 309 41 57 34 162 215 338 353 11 11 89 70 57 46 79 123 176 282 355 276 208 42 120 83 117 108 56 65 75 59 126 183 54 70 142 95 123 350 336 324 330 331 324
89 211 326 94 131 287 276 33 49 16 25 12 50 44 28 91 34 93 116 326 2 81 162 177 23 83 357 353 39 54 1 36 89 87 37 98 165 176 149 277 324 315 320 320 316
80 57 350 50 38 108 112 23 59 26 63 3 10 53 71 58 19 138 132 2 29 79 66 78 71 78 176 135 118 60 1 348 105 91 144 71 139 173 28 296 298 305 296 294 296
29 89 182 16 9 43 48 2 31 7 353 20 42 38 309 117 55 123 168 346 41 2 59 85 86 78 65 69 84 85 56 42 75 113 97 162 118 162 210 253 253 263 288 306 324
100 108 30 43 336 29 11 359 37 23 8 357 58 342 20 161 198 204 141 165 220 30 70 34 131 90 49 71 72 75 46 71 67 68 70 112 119 167 223 258 290 283 303 315 326
341 37 95 328 5 60 359 13 7 2 44 60 313 45 31 327 84 96 93 82 77 83 99 92 133 101 169 195 345 36 7 51 91 55 129 142 146 146 215 309 297 296 311 313 320